Regional Weather Roundup
Issued by NWS

Home | Current Version | Previous Version | Text Only | Print | Product List | Glossary Off
Versions: 1 2 3 4 5 6 7 8 9 10 11 12 13 14 15 16 17 18 19 20 21 22 23 24 25 26 27 28 29 30 31 32 33 34 35 36 37 38 39 40 41 42 43 44 45 46 47 48 49 50

000
ASUS43 KIND 250509
RWRIN

WEATHER ROUNDUP FOR INDIANA
NATIONAL WEATHER SERVICE INDIANAPOLIS IN
100 AM EDT SUN JUN 25 2017

NOTE: "FAIR" INDICATES FEW OR NO CLOUDS BELOW 12,000 FEET WITH NO
SIGNIFICANT WEATHER AND/OR OBSTRUCTIONS TO VISIBILITY.

* - STATION DOES NOT REPORT WEATHER SUCH AS PRECIPITATION OR FOG.

+ - STATION NOT QUALITY CONTROLLED BY THE NATIONAL WEATHER SERVICE.
    USE DATA WITH CAUTION...ESPECIALLY DEWPOINT AND RELATIVE
    HUMIDITY OBSERVATIONS.

INZ001>003-010>013-019-020-250600-
NORTHWEST INDIANA

CITY           SKY/WX    TMP DP  RH WIND       PRES   REMARKS
GARY /AIRPORT/ MOCLDY    63  44  48 SW3       30.07S
KNOX *+        MOCLDY    55  41  58 SW6       30.07F
LA PORTE +     PTCLDY    58  47  66 SW6       30.07S
MICHIGAN CITY+ MOCLDY    59  50  72 CALM      30.06S
MONTICELLO +   CLEAR     58  50  76 SW6       30.10S
VALPARAISO     PTCLDY    61  47  59 S6        30.07S

$$

LMZ046-743>745-250600-
SOUTHERN LAKE MICHIGAN

STATION/POSITION TIME  TEMP    WIND        PRES    WAVE
                       AIR SEA DIR/SP/G            HT
                 (UTC) (F)     (DEG/KT/KT) (MB)    (FT)
BURNS HARBOR     0440   66     220/  4/  6 1018.3S
MICHIGAN CITY    0440   65     280/  6/  7   N/A
5NW MICH CITY    0450   65 67  310/  4/  8   N/A     2

$$

INZ004-005-014>016-021>024-250600-
NORTH CENTRAL INDIANA

CITY           SKY/WX    TMP DP  RH WIND       PRES   REMARKS
GOSHEN         CLEAR     57  47  69 SW6       30.06F
LOGANSPORT +   CLEAR     55  48  76 SW5       30.11S
PERU/GRISSOM   CLEAR     57  49  75 W6        30.09R
ROCHESTER +    CLEAR     59  46  63 SW5       30.09S
SOUTH BEND     PTCLDY    57  48  72 SW6       30.07S
WARSAW +       PTCLDY    55  46  71 CALM      30.08S

$$

INZ006>009-017-018-025>027-250600-
NORTHEAST INDIANA

CITY           SKY/WX    TMP DP  RH WIND       PRES   REMARKS
AUBURN +       PTCLDY    61  50  67 W3        30.08S
FORT WAYNE     PTCLDY    61  49  64 W8        30.09R
HUNTINGTON +   CLEAR     59  47  64 W3        30.09S
KENDALLVILLE + CLEAR     58  49  72 SW5       30.08S

$$

INZ028-029-035-036-043>045-051>053-250600-
WEST CENTRAL INDIANA

CITY           SKY/WX    TMP DP  RH WIND       PRES   REMARKS
CRAWFORDSVL +  CLEAR     54  52  95 CALM      30.13F
GREENCASTLE +  CLEAR     54  52  94 CALM      30.15R
LAFAYETTE      CLEAR     55  52  89 CALM      30.11S
TERRE HAUTE    CLEAR     59  52  77 SW3       30.15S

$$

INZ030>032-037>040-046>048-054>057-064-065-250600-
CENTRAL INDIANA

CITY           SKY/WX    TMP DP  RH WIND       PRES   REMARKS
CP ATTERBURY + CLEAR     55  54  94 CALM      30.14S
FRANKFORT +    CLOUDY    58  51  80 W6        30.14S
GREENWOOD *+   PTCLDY    61  49  66 W3        30.14S
INDIANAPOLIS   CLEAR     60  49  66 W7        30.13S
-EAGLE CREEK   CLEAR     62  48  60 CALM      30.12S
KOKOMO +       CLEAR     58  50  75 SW6       30.12R
MARION +       CLEAR     57  48  72 W7        30.11S
MT COMFORT *+  PTCLDY    57  48  72 W8        30.13S
SHELBYVILLE    PTCLDY    62  49  62 W6        30.12S
ZIONSVILLE +   CLEAR     57  48  71 W3        30.14S

$$

INZ033-034-041-042-049-050-058-059-250600-
EAST CENTRAL INDIANA

CITY           SKY/WX    TMP DP  RH WIND       PRES   REMARKS
MUNCIE         CLEAR     62  49  62 W7        30.11R
RICHMOND +     CLEAR     57  48  72 W7        30.13R

$$

INZ060-061-067>069-081>083-085>088-250600-
SOUTHWEST INDIANA

CITY           SKY/WX    TMP DP  RH WIND       PRES   REMARKS
EVANSVILLE     CLEAR     60  53  77 SW6       30.17S
HUNTINGBURG *+ CLEAR     59  56  89 CALM      30.16S
WASHINGTON +   CLEAR     60  53  77 W6        30.16R

$$

INZ062-063-066-070>080-084-089>092-250600-
SOUTH CENTRAL AND SOUTHEAST INDIANA

CITY           SKY/WX    TMP DP  RH WIND       PRES   REMARKS
BEDFORD +      CLEAR     61  52  72 CALM      30.15R
BLOOMINGTON    CLEAR     59  50  72 CALM      30.15R
MADISON *+     CLEAR     59  55  88 CALM      30.15S
NORTH VERNON + CLEAR     61  54  77 NW3       30.14R
SEYMOUR +      CLEAR     63  54  72 W6        30.14R

$$





USA.gov is the U.S. government's official web portal to all federal, state and local government web resources and services.